Location: Audinghen
(50.8518°N, 1.6129°E)
Time: 00:54:58
(UTC+00:00)

Spot 4 Rocket - Pass Details

Date: 07 August 2020
Orbit: 776 x 781 km, 98.7° (Epoch: 25 September)

Event Time Altitude Azimuth Distance (km) Brightness Sun altitude
Rises 03:09:21 0° 15° (NNE) 3,283 8.4 -11.0°
Reaches altitude 10° 03:11:41 10° 17° (NNE) 2,350 7.5 -10.8°
Maximum altitude 03:16:52 80° 105° (ESE) 800 4.2 -10.2°
Drops below altitude 10° 03:22:02 10° 193° (SSW) 2,331 6.0 -9.6°
Enters shadow 03:22:56 - 193° (SSW) 2,692 6.3 -9.5°
